AirNav   Everest Fuels
 
 281 users online  

5MI9 Mc Phail Corporation Heliport
Rochester, Michigan, USA

GOING TO ROCHESTER?


FAA INFORMATION EFFECTIVE 18 JUNE 2020

Location

FAA Identifier: 5MI9
Lat/Long: 42-39-37.1170N 083-09-19.7570W
42-39.618617N 083-09.329283W
42.6603103,-83.1554881
(estimated)
Elevation: 770 ft. / 235 m (estimated)
Variation: 06W (1985)
From city: 1 mile SE of ROCHESTER, MI
Time zone: UTC -4 (UTC -5 during Standard Time)
Zip code: 48309

Heliport Operations

Heliport use: Private use. Permission required prior to landing
Activation date: 08/1981
Control tower: no
ARTCC: CLEVELAND CENTER
FSS: LANSING FLIGHT SERVICE STATION
Attendance: UNATNDD
Wind indicator: yes
Segmented circle: no

Heliport Communications

WX AWOS-3 at VLL (7 nm S): 119.475 (248-288-4649)
WX ASOS at PTK (12 nm W): 125.025 (248-886-8551)
WX ASOS at DET (16 nm SE): PHONE 313-371-9696

Nearby radio navigation aids

VOR radial/distance  VOR name  Freq  Var
SVMr055/24.6SALEM VORTAC114.3003W
DXOr025/28.4DETROIT VOR/DME113.4006W
FNTr131/31.9FLINT VORTAC116.9006W
CRLr023/39.1CARLETON VOR/DME115.7003W

 
NDB name  Hdg/Dist  Freq  Var  ID
GROSSE ILE007/33.641907WRYS .-. -.-- ...

Heliport Services

Runway Information

Helipad H1

Dimensions: 40 x 40 ft. / 12 x 12 m
CIRCULAR LANDING PAD.
Surface: asphalt
Latitude: 42-39.618617N
Longitude: 083-09.329283W
Elevation: 770.0 ft.
Traffic pattern: leftleft

Heliport Ownership and Management from official FAA records

Ownership: Privately-owned
Owner: MC PHAIL CORPORATION
ATTN: FRANK SCERBO, 1400 LIVERNOIS AVENUE
ROCHESTER, MI 48307
Phone 561-310-5494
Manager: WALTER S. MC PHAIL
PONTIAC TRAIL
ORCHARD LAKE, MI 48323
Phone 561-310-5494

Heliport Operational Statistics

Aircraft based on the field: 1
Helicopters: 1
    

Additional Remarks

FOR CD CTC DETROIT APCH AT 800-499-8181.

Instrument Procedures

There are no published instrument procedures at 5MI9.

Some nearby airports with instrument procedures:

KVLL - Oakland/Troy Airport (7 nm S)
D98 - Romeo State Airport (11 nm NE)
KPTK - Oakland County International Airport (12 nm W)
57D - Ray Community Airport (13 nm E)
KMTC - Selfridge Air National Guard Base (14 nm E)
KDET - Coleman A Young Municipal Airport (16 nm SE)
 
Loc | Ops | Rwys | IFR | FBO | Links
Com | Nav | Svcs | Stats | Notes
Area around 5MI9 (Mc Phail Corporation Heliport)
 
Road maps at: MapQuest Bing Google
 
Aerial photo
No photo
 
Sectional chart

 
Airport distance calculator
Flying to Mc Phail Corporation Heliport? Find the distance to fly.

From to 5MI9

Sunrise and sunset
Times for 15-Jul-2020
 Local
(UTC-4)
 Zulu
(UTC)
Morning civil twilight05:3609:36
Sunrise06:1010:10
Sunset21:0701:07
Evening civil twilight21:4101:41

Current date and time
Zulu (UTC)  15-Jul-2020 07:47:10
Local (UTC-4)  15-Jul-2020 03:47:10
 
METAR
KVLL 
7nm S 
150715Z AUTO 00000KT 10SM CLR 21/17 A3012 RMK AO2 T02120173
KPTK 
12nm W 
150653Z AUTO 00000KT 10SM CLR 21/16 A3009 RMK AO2 SLP184 T02110161 $
KMTC 
15nm E 
150656Z AUTO 18004KT 10SM BKN160 BKN180 21/20 A3009 RMK AO2 SLP191 T02090204
KDET 
17nm S 
150653Z 00000KT 10SM CLR 22/17 A3010 RMK AO2 SLP190 T02170167
TAF
KPTK 
12nm W 
150520Z 1506/1606 16003KT P6SM BKN200 FM151400 19007KT P6SM SCT250 FM152100 17007KT P6SM SCT050 OVC200
KMTC 
15nm E 
150100Z 1501/1607 17006KT 9999 FEW150 SCT250 QNH3001INS BECMG 1605/1606 13006KT 9999 FEW050 SCT200 QNH3000INS TX30/1520Z TN20/1509Z LAST NO AMDS AFT 1503 NEXT 1509
KDET 
17nm S 
150520Z 1506/1606 15003KT P6SM BKN200 FM151400 19007KT P6SM SCT250 FM152100 14007KT P6SM OVC200
NOTAMs
Click for the latest NOTAMs
NOTAMs are issued by the DoD/FAA and will open in a separate window not controlled by AirNav.

 

 
 

Would you like to see your business listed on this page?

 If your business provides an interesting product or service to pilots, flight crews, aircraft, or users of the Mc Phail Corporation Heliport, you should consider listing it here.  To start the listing process, click on the button below
 
Add a business
 

Other Pages about Mc Phail Corporation Heliport

Update a link
 
Copyright © AirNav, LLC. All rights reserved. Privacy Policy  Contact